TimeEDT,TemperatureF,Dew PointF,Humidity,Sea Level PressureIn,VisibilityMPH,Wind Direction,Wind SpeedMPH,Gust SpeedMPH,PrecipitationIn,Events,Conditions,WindDirDegrees,DateUTC
12:15 AM,62.6,60.8,94,29.60,10.0,SSW,4.6,-,N/A,,Overcast,200,2012-10-16 04:15:00
12:54 AM,63.0,61.0,93,29.58,10.0,Calm,Calm,-,0.00,,Overcast,0,2012-10-16 04:54:00
1:03 AM,62.6,60.8,94,29.58,6.0,Calm,Calm,-,N/A,,Overcast,0,2012-10-16 05:03:00
1:11 AM,62.6,60.8,94,29.59,2.5,West,13.8,18.4,0.03,Rain,Rain,260,2012-10-16 05:11:00
1:18 AM,60.8,57.2,88,29.58,4.0,NW,6.9,18.4,0.05,Rain,Light Rain,320,2012-10-16 05:18:00
1:26 AM,60.8,57.2,88,29.58,10.0,NW,6.9,-,0.05,Rain,Light Rain,310,2012-10-16 05:26:00
1:54 AM,61.0,57.9,90,29.59,10.0,WNW,8.1,-,0.05,Rain,Light Rain,290,2012-10-16 05:54:00
2:54 AM,61.0,57.0,87,29.58,10.0,West,9.2,-,0.00,,Overcast,270,2012-10-16 06:54:00
3:54 AM,60.1,55.9,86,29.57,10.0,WNW,11.5,-,N/A,,Overcast,290,2012-10-16 07:54:00
4:54 AM,57.0,52.0,83,29.56,10.0,WNW,11.5,-,0.00,Rain,Light Rain,300,2012-10-16 08:54:00
5:54 AM,55.0,46.9,74,29.58,10.0,WNW,15.0,26.5,0.01,,Overcast,300,2012-10-16 09:54:00
6:54 AM,54.0,45.0,72,29.59,10.0,West,17.3,-,N/A,,Overcast,280,2012-10-16 10:54:00
7:54 AM,53.1,41.0,64,29.60,10.0,WNW,18.4,29.9,N/A,,Mostly Cloudy,290,2012-10-16 11:54:00
8:54 AM,52.0,37.9,59,29.63,10.0,WNW,18.4,25.3,N/A,,Scattered Clouds,290,2012-10-16 12:54:00
9:54 AM,53.1,37.0,55,29.65,10.0,WNW,16.1,26.5,N/A,,Scattered Clouds,290,2012-10-16 13:54:00
10:54 AM,54.0,37.0,53,29.64,10.0,West,19.6,28.8,N/A,,Scattered Clouds,280,2012-10-16 14:54:00
11:54 AM,55.0,35.1,47,29.64,10.0,WNW,20.7,29.9,N/A,,Scattered Clouds,290,2012-10-16 15:54:00
12:54 PM,55.9,34.0,44,29.64,10.0,WNW,20.7,31.1,N/A,,Partly Cloudy,300,2012-10-16 16:54:00
1:54 PM,55.0,33.1,43,29.65,10.0,NW,21.9,27.6,N/A,,Scattered Clouds,320,2012-10-16 17:54:00
2:54 PM,55.9,33.1,42,29.66,10.0,WNW,16.1,31.1,N/A,,Partly Cloudy,300,2012-10-16 18:54:00
3:54 PM,55.9,33.1,42,29.68,10.0,WNW,18.4,27.6,N/A,,Partly Cloudy,300,2012-10-16 19:54:00
4:54 PM,55.9,33.1,42,29.72,10.0,WNW,16.1,24.2,N/A,,Partly Cloudy,300,2012-10-16 20:54:00
5:54 PM,54.0,33.1,45,29.75,10.0,WNW,12.7,-,N/A,,Partly Cloudy,300,2012-10-16 21:54:00
6:54 PM,53.1,33.1,47,29.78,10.0,NW,12.7,-,N/A,,Clear,320,2012-10-16 22:54:00
7:54 PM,52.0,34.0,50,29.81,10.0,NW,5.8,-,N/A,,Clear,310,2012-10-16 23:54:00
8:54 PM,51.1,33.1,50,29.83,10.0,NW,9.2,-,N/A,,Clear,320,2012-10-17 00:54:00
9:54 PM,46.0,35.1,66,29.85,10.0,NNE,5.8,-,N/A,,Clear,30,2012-10-17 01:54:00
10:54 PM,46.9,35.1,63,29.87,10.0,Calm,Calm,-,N/A,,Clear,0,2012-10-17 02:54:00
11:54 PM,48.0,35.1,61,29.89,10.0,WNW,5.8,-,N/A,,Clear,300,2012-10-17 03:54:00